Powrót do katalogu

BRO-16

AktywnyNaukaSSO
NORAD 62654·PAYLOAD·🇫🇷 France

Wystrzelony Jan 14, 2025 z Vandenberg Space Force Base

Loading…

Następne Przeloty (najbliższe 24 godziny)

TLE

ŚwieżeSource: Space-Track

Epoka: Sep 13, 2026, 23:13 UTC

1 62654U 25009AX  26256.96775421  .00002809  00000-0  11719-3 0  9992
2 62654  97.4006 336.3644 0002182  38.0719 322.0673 15.24497304 92329

Śledź BRO-16 w czasie rzeczywistym z AllMySat

Download on the App Store